FW9312 Weather Reports


Display with metric or nautical units.
time (UTC)temp
F
wind
direction
speed
MPH
gust
MPH
rain 1hr
in
rain 24hr
in
rain mn
in
humidity
%
barometer
mb
20260506051151 71 177 3.0 3.0 0.00 0.00 0.00 54 1009.9
20260506050649 71 219 2.0 3.0 0.00 0.00 0.00 54 1010.2
20260506050146 71 199 3.0 3.0 0.00 0.00 0.00 54 1010.0
20260506044637 72 223 3.0 3.0 0.00 0.00 0.00 53 1010.1
20260506044133 72 197 2.0 2.0 0.00 0.00 0.00 52 1010.1
20260506043631 71 150 4.0 4.0 0.00 0.00 0.00 52 1010.1
20260506043129 71 208 2.0 3.0 0.00 0.00 0.00 52 1010.1
20260506042627 71 209 3.0 3.0 0.00 0.00 0.00 51 1010.0
20260506042125 71 229 2.0 2.0 0.00 0.00 0.00 51 1010.2
20260506041624 71 198 2.0 3.0 0.00 0.00 0.00 51 1010.0
20260506041120 71 227 2.0 3.0 0.00 0.00 0.00 50 1010.1
20260506040618 71 215 1.0 1.0 0.00 0.00 0.00 50 1010.0
20260506040114 71 208 4.0 6.0 0.00 0.00 0.00 49 1010.0
20260506035611 71 217 2.0 3.0 0.00 0.00 0.00 49 1010.0
20260506035108 72 202 1.0 1.0 0.00 0.00 0.00 48 1009.8
20260506034605 72 190 2.0 2.0 0.00 0.00 0.00 48 1009.9
20260506034102 72 184 3.0 4.0 0.00 0.00 0.00 47 1010.0
20260506033559 72 217 2.0 2.0 0.00 0.00 0.00 47 1010.0
20260506033056 72 207 1.0 1.0 0.00 0.00 0.00 47 1009.9
20260506032553 72 207 2.0 3.0 0.00 0.00 0.00 46 1009.8
20260506032050 72 186 2.0 2.0 0.00 0.00 0.00 46 1009.7
20260506031548 72 201 2.0 2.0 0.00 0.00 0.00 46 1009.9
20260506031044 72 218 2.0 3.0 0.00 0.00 0.00 45 1009.9
20260506030543 72 230 1.0 1.0 0.00 0.00 0.00 45 1009.8
20260506030039 73 211 2.0 2.0 0.00 0.00 0.00 44 1009.8
20260506025536 73 208 2.0 2.0 0.00 0.00 0.00 44 1009.9
20260506025032 73 216 1.0 2.0 0.00 0.00 0.00 45 1009.8
20260506024530 73 209 1.0 2.0 0.00 0.00 0.00 44 1009.6
20260506024026 73 223 2.0 2.0 0.00 0.00 0.00 44 1009.8
20260506023522 73 193 2.0 2.0 0.00 0.00 0.00 43 1009.7
20260506023020 73 198 2.0 2.0 0.00 0.00 0.00 44 1009.9
20260506022517 73 204 2.0 2.0 0.00 0.00 0.00 43 1009.9
20260506022014 73 200 2.0 2.0 0.00 0.00 0.00 43 1009.8
20260506021512 73 221 2.0 2.0 0.00 0.00 0.00 42 1009.9
20260506021009 73 188 1.0 1.0 0.00 0.00 0.00 42 1009.9
20260506020507 73 178 2.0 3.0 0.00 0.00 0.00 41 1009.9
20260506020004 73 201 1.0 2.0 0.00 0.00 0.00 41 1009.9
20260506015501 74 212 2.0 2.0 0.00 0.00 0.00 40 1009.7
20260506014958 74 219 2.0 3.0 0.00 0.00 0.00 39 1009.7
20260506014455 74 207 1.0 1.0 0.00 0.00 0.00 39 1009.5
20260506013951 74 201 1.0 1.0 0.00 0.00 0.00 38 1009.6
20260506013449 75 173 4.0 4.0 0.00 0.00 0.00 37 1009.6
20260506012945 75 207 1.0 1.0 0.00 0.00 0.00 37 1009.6
20260506012442 74 174 2.0 2.0 0.00 0.00 0.00 37 1009.3
20260506011938 74 180 2.0 2.0 0.00 0.00 0.00 37 1009.4
20260506011436 75 178 2.0 3.0 0.00 0.00 0.00 37 1009.5
20260506010933 75 192 1.0 2.0 0.00 0.00 0.00 36 1009.5
20260506010432 76 198 2.0 2.0 0.00 0.00 0.00 35 1009.3
20260506005927 76 214 2.0 2.0 0.00 0.00 0.00 34 1009.1
20260506005425 76 204 2.0 2.0 0.00 0.00 0.00 34 1009.1
20260506004920 77 212 2.0 3.0 0.00 0.00 0.00 34 1009.1
20260506004419 77 201 3.0 3.0 0.00 0.00 0.00 33 1009.1
20260506003914 77 256 3.0 4.0 0.00 0.00 0.00 33 1009.1
20260506003411 77 218 2.0 2.0 0.00 0.00 0.00 33 1009.1
20260506002908 77 166 3.0 3.0 0.00 0.00 0.00 33 1008.7
20260506002403 77 230 3.0 4.0 0.00 0.00 0.00 33 1008.8
20260506001859 78 252 4.0 6.0 0.00 0.00 0.00 33 1008.8
20260506001356 78 216 4.0 6.0 0.00 0.00 0.00 33 1008.6
20260506000853 78 167 3.0 3.0 0.00 0.00 0.00 34 1008.7
20260506000353 78 220 2.0 3.0 0.00 0.00 0.00 34 1008.6
20260505235847 78 216 4.0 4.0 0.00 0.00 0.00 33 1008.6
20260505235345 78 224 2.0 3.0 0.00 0.00 0.00 34 1008.5
20260505234842 79 214 3.0 4.0 0.00 0.00 0.00 34 1008.5
20260505234340 79 201 2.0 3.0 0.00 0.00 0.00 33 1008.7
20260505233836 79 185 3.0 4.0 0.00 0.00 0.00 33 1008.5
20260505233334 80 260 4.0 4.0 0.00 0.00 0.00 33 1008.4
20260505232832 80 252 3.0 4.0 0.00 0.00 0.00 32 1008.6
20260505232329 80 199 4.0 4.0 0.00 0.00 0.00 32 1008.8
20260505231825 80 242 6.0 7.0 0.00 0.00 0.00 32 1008.4
20260505231324 80 213 4.0 6.0 0.00 0.00 0.00 32 1008.3
20260505230822 80 225 2.0 2.0 0.00 0.00 0.00 32 1008.5
20260505230318 80 196 5.0 6.0 0.00 0.00 0.00 32 1008.4
20260505225815 81 220 6.0 7.0 0.00 0.00 0.00 32 1008.2
20260505225312 81 177 3.0 3.0 0.00 0.00 0.00 33 1008.2
20260505224807 82 199 4.0 7.0 0.00 0.00 0.00 33 1008.3
20260505224305 82 244 5.0 7.0 0.00 0.00 0.00 32 1008.4
20260505223802 81 191 4.0 6.0 0.00 0.00 0.00 32 1008.6
20260505223259 81 199 4.0 7.0 0.00 0.00 0.00 32 1008.6
20260505222755 81 240 4.0 4.0 0.00 0.00 0.00 33 1008.5
20260505222251 81 242 2.0 3.0 0.00 0.00 0.00 33 1008.5
20260505221748 82 195 3.0 3.0 0.00 0.00 0.00 34 1008.5
20260505221245 82 218 4.0 6.0 0.00 0.00 0.00 32 1008.5
20260505220742 82 184 4.0 7.0 0.00 0.00 0.00 33 1008.6
20260505220239 82 211 4.0 4.0 0.00 0.00 0.00 32 1008.5
20260505215737 83 233 3.0 4.0 0.00 0.00 0.00 32 1008.4
20260505215235 82 230 6.0 7.0 0.00 0.00 0.00 31 1008.4
20260505214733 82 204 5.0 6.0 0.00 0.00 0.00 31 1008.4
20260505214230 82 169 3.0 3.0 0.00 0.00 0.00 31 1008.5
20260505213727 82 225 4.0 6.0 0.00 0.00 0.00 31 1008.3
20260505213224 82 162 3.0 4.0 0.00 0.00 0.00 31 1008.4
20260505212720 82 221 5.0 6.0 0.00 0.00 0.00 31 1008.3
20260505212217 82 235 3.0 4.0 0.00 0.00 0.00 32 1008.6
20260505211714 83 203 7.0 8.0 0.00 0.00 0.00 31 1008.4
20260505211212 83 211 5.0 7.0 0.00 0.00 0.00 32 1008.3
20260505210708 84 176 5.0 8.0 0.00 0.00 0.00 31 1008.1
20260505210205 83 220 8.0 10.0 0.00 0.00 0.00 31 1008.3
20260505205702 84 217 5.0 6.0 0.00 0.00 0.00 31 1008.2
20260505205200 84 205 4.0 6.0 0.00 0.00 0.00 32 1008.3
20260505204657 85 214 6.0 9.0 0.00 0.00 0.00 31 1008.1
20260505204155 84 188 4.0 4.0 0.00 0.00 0.00 32 1008.3
20260505203652 84 189 4.0 4.0 0.00 0.00 0.00 32 1008.2
20260505203148 85 165 6.0 8.0 0.00 0.00 0.00 31 1008.2
20260505202644 85 189 4.0 6.0 0.00 0.00 0.00 34 1008.3
20260505202140 85 188 4.0 6.0 0.00 0.00 0.00 32 1008.4
20260505201637 85 174 4.0 4.0 0.00 0.00 0.00 32 1008.3
20260505201135 85 210 5.0 6.0 0.00 0.00 0.00 34 1008.3
20260505200633 85 182 4.0 6.0 0.00 0.00 0.00 34 1008.3
20260505200129 84 198 4.0 4.0 0.00 0.00 0.00 34 1008.3
20260505195625 85 142 5.0 7.0 0.00 0.00 0.00 33 1008.5
20260505195123 85 212 6.0 8.0 0.00 0.00 0.00 33 1008.5
20260505194620 84 221 5.0 6.0 0.00 0.00 0.00 34 1008.3
20260505194116 84 209 4.0 6.0 0.00 0.00 0.00 36 1008.4
20260505193613 84 234 4.0 6.0 0.00 0.00 0.00 34 1008.8
20260505193110 83 249 9.0 9.0 0.00 0.00 0.00 35 1008.7
20260505192609 83 202 5.0 6.0 0.00 0.00 0.00 35 1008.9
20260505192106 83 174 5.0 7.0 0.00 0.00 0.00 37 1008.9
20260505191604 83 154 5.0 8.0 0.00 0.00 0.00 38 1008.9
20260505191101 83 225 2.0 3.0 0.00 0.00 0.00 38 1008.9
20260505190556 83 193 4.0 6.0 0.00 0.00 0.00 37 1009.1
20260505190052 83 209 5.0 7.0 0.00 0.00 0.00 37 1009.0
20260505185549 83 250 4.0 6.0 0.00 0.00 0.00 36 1009.4
20260505185045 83 208 4.0 4.0 0.00 0.00 0.00 36 1009.3
20260505184542 83 225 4.0 4.0 0.00 0.00 0.00 34 1009.4
20260505184039 83 196 4.0 4.0 0.00 0.00 0.00 36 1009.4
20260505183535 83 203 3.0 4.0 0.00 0.00 0.00 35 1009.6
20260505183033 82 213 2.0 2.0 0.00 0.00 0.00 36 1009.4
20260505182529 82 197 3.0 4.0 0.00 0.00 0.00 39 1009.5
20260505182026 82 197 4.0 4.0 0.00 0.00 0.00 34 1009.6
20260505181523 82 174 4.0 4.0 0.00 0.00 0.00 35 1009.6
20260505181020 82 251 4.0 8.0 0.00 0.00 0.00 35 1009.7
20260505180516 82 221 3.0 3.0 0.00 0.00 0.00 37 1009.7
20260505180014 82 182 4.0 4.0 0.00 0.00 0.00 36 1009.8
20260505175508 82 188 2.0 3.0 0.00 0.00 0.00 37 1009.9
20260505175006 81 145 4.0 6.0 0.00 0.00 0.00 37 1010.1
20260505174503 82 165 4.0 4.0 0.00 0.00 0.00 38 1010.2
20260505173959 81 184 3.0 3.0 0.00 0.00 0.00 38 1010.2
20260505173455 82 176 5.0 7.0 0.00 0.00 0.00 39 1010.2
20260505172952 82 230 4.0 4.0 0.00 0.00 0.00 37 1010.2
20260505172451 81 210 3.0 3.0 0.00 0.00 0.00 38 1010.3
20260505171950 82 230 5.0 7.0 0.00 0.00 0.00 36 1010.4
20260505171447 81 224 2.0 2.0 0.00 0.00 0.00 40 1010.4
20260505170944 81 212 3.0 4.0 0.00 0.00 0.00 38 1010.4
20260505170440 81 192 4.0 6.0 0.00 0.00 0.00 41 1010.3
20260505165936 81 243 3.0 3.0 0.00 0.00 0.00 38 1010.5
20260505165432 81 198 4.0 7.0 0.00 0.00 0.00 40 1010.6
20260505164927 81 199 3.0 3.0 0.00 0.00 0.00 39 1010.6
20260505164424 80 186 2.0 3.0 0.00 0.00 0.00 40 1010.7
20260505163922 81 234 2.0 3.0 0.00 0.00 0.00 39 1011.1
20260505163421 80 233 3.0 4.0 0.00 0.00 0.00 38 1011.0
20260505162920 80 246 4.0 7.0 0.00 0.00 0.00 39 1011.2
20260505162415 80 254 4.0 4.0 0.00 0.00 0.00 39 1011.1
20260505161912 81 208 4.0 4.0 0.00 0.00 0.00 39 1011.1
20260505161409 80 240 3.0 4.0 0.00 0.00 0.00 39 1011.1
20260505160906 80 220 5.0 7.0 0.00 0.00 0.00 40 1011.1
20260505160404 80 204 3.0 3.0 0.00 0.00 0.00 41 1011.3
20260505153343 80 290 3.0 4.0 0.00 0.00 0.00 41 1011.5
20260505152840 80 208 4.0 6.0 0.00 0.00 0.00 41 1011.5
20260505152338 80 223 4.0 4.0 0.00 0.00 0.00 41 1011.6
20260505151837 80 223 3.0 3.0 0.00 0.00 0.00 42 1011.4
20260505151334 80 209 4.0 4.0 0.00 0.00 0.00 41 1011.1
20260505150831 79 221 3.0 4.0 0.00 0.00 0.00 43 1011.4
20260505150329 79 188 6.0 7.0 0.00 0.00 0.00 42 1011.4
20260505140258 75 189 2.0 2.0 0.00 0.00 0.00 53 1011.7
20260505130222 67 225 2.0 2.0 0.00 0.00 0.00 61 1012.3
20260505124712 66 179 3.0 4.0 0.00 0.00 0.00 64 1012.4
20260505124209 65 183 2.0 2.0 0.00 0.00 0.00 64 1012.4
20260505123705 65 185 1.0 2.0 0.00 0.00 0.00 65 1012.6
20260505123202 65 180 2.0 2.0 0.00 0.00 0.00 65 1012.5
20260505122658 64 178 2.0 2.0 0.00 0.00 0.00 66 1012.5
20260505122156 64 202 2.0 2.0 0.00 0.00 0.00 66 1012.5
20260505121652 64 212 1.0 1.0 0.00 0.00 0.00 67 1012.7
20260505121149 63 214 1.0 2.0 0.00 0.00 0.00 68 1012.5
20260505120645 63 226 1.0 1.0 0.00 0.00 0.00 70 1012.6
20260505120141 62 217 1.0 1.0 0.00 0.00 0.00 70 1012.6
20260505115635 62 213 1.0 1.0 0.00 0.00 0.00 71 1012.5
20260505115133 61 226 1.0 1.0 0.00 0.00 0.00 72 1012.5
20260505114630 61 225 1.0 1.0 0.00 0.00 0.00 73 1012.4
20260505114126 60 229 1.0 1.0 0.00 0.00 0.00 74 1012.3
20260505113623 60 229 1.0 1.0 0.00 0.00 0.00 76 1012.3
20260505113119 59 233 0.0 1.0 0.00 0.00 0.00 78 1012.2
20260505112615 58 233 0.0 0.0 0.00 0.00 0.00 80 1012.2
20260505112115 57 234 0.0 1.0 0.00 0.00 0.00 83 1012.1
20260505111613 56 234 0.0 0.0 0.00 0.00 0.00 85 1012.1
20260505111110 55 235 1.0 1.0 0.00 0.00 0.00 88 1012.0
20260505110606 54 239 0.0 0.0 0.00 0.00 0.00 91 1012.0
20260505102039 52 239 0.0 0.0 0.00 0.00 0.00 90 1011.3
20260505101537 52 240 0.0 0.0 0.00 0.00 0.00 91 1011.4
20260505101033 52 240 0.0 0.0 0.00 0.00 0.00 90 1011.1
20260505100530 52 240 0.0 0.0 0.00 0.00 0.00 90 1011.2
20260505100027 53 240 0.0 0.0 0.00 0.00 0.00 89 1011.3
20260505095523 53 240 0.0 0.0 0.00 0.00 0.00 89 1011.4
20260505095019 53 240 0.0 0.0 0.00 0.00 0.00 88 1011.4
20260505094516 53 240 0.0 0.0 0.00 0.00 0.00 87 1011.3
20260505094013 53 240 0.0 0.0 0.00 0.00 0.00 86 1011.2
20260505093509 54 240 0.0 0.0 0.00 0.00 0.00 85 1011.2
20260505093006 55 240 0.0 0.0 0.00 0.00 0.00 84 1011.3
20260505092504 56 240 0.0 0.0 0.00 0.00 0.00 82 1011.3
20260505092002 57 240 0.0 0.0 0.00 0.00 0.00 81 1011.2
20260505091459 57 240 1.0 1.0 0.00 0.00 0.00 81 1011.2
20260505090957 56 242 0.0 1.0 0.00 0.00 0.00 82 1011.3
20260505090455 56 235 1.0 1.0 0.00 0.00 0.00 83 1011.0
20260505085952 55 233 0.0 0.0 0.00 0.00 0.00 84 1011.0
20260505085449 55 233 0.0 0.0 0.00 0.00 0.00 85 1011.1
20260505084948 54 233 0.0 1.0 0.00 0.00 0.00 85 1011.3
20260505084446 54 233 0.0 0.0 0.00 0.00 0.00 83 1010.9
20260505083943 55 233 0.0 0.0 0.00 0.00 0.00 83 1010.8
20260505083440 55 232 0.0 0.0 0.00 0.00 0.00 83 1010.9
20260505082936 56 232 0.0 0.0 0.00 0.00 0.00 81 1011.0
20260505082432 57 232 0.0 0.0 0.00 0.00 0.00 81 1011.0
20260505081930 57 232 1.0 1.0 0.00 0.00 0.00 80 1010.9
20260505081426 57 232 0.0 0.0 0.00 0.00 0.00 79 1010.8
20260505080923 58 232 0.0 1.0 0.00 0.00 0.00 78 1010.8
20260505080419 58 232 0.0 0.0 0.00 0.00 0.00 77 1010.6
20260505075914 58 232 0.0 0.0 0.00 0.00 0.00 76 1010.6
20260505075412 59 232 0.0 0.0 0.00 0.00 0.00 76 1010.7
20260505074909 59 233 0.0 1.0 0.00 0.00 0.00 76 1010.6
20260505074406 59 233 1.0 1.0 0.00 0.00 0.00 76 1010.7
20260505073903 58 226 1.0 1.0 0.00 0.00 0.00 77 1010.6
20260505073401 58 225 1.0 1.0 0.00 0.00 0.00 77 1010.6
20260505072858 58 225 1.0 1.0 0.00 0.00 0.00 78 1010.6
20260505072354 57 225 0.0 1.0 0.00 0.00 0.00 78 1010.5
20260505071850 57 225 0.0 0.0 0.00 0.00 0.00 79 1010.6
20260505071346 57 225 0.0 0.0 0.00 0.00 0.00 79 1010.6
20260505070845 57 225 0.0 0.0 0.00 0.00 0.00 79 1010.6
20260505070341 57 225 0.0 0.0 0.00 0.00 0.00 79 1010.3
20260505065836 57 225 0.0 0.0 0.00 0.00 0.00 79 1010.6
20260505065333 57 225 0.0 0.0 0.00 0.00 0.00 79 1010.6
20260505064830 56 225 0.0 0.0 0.00 0.00 0.00 80 1010.4
20260505064327 56 225 0.0 0.0 0.00 0.00 0.00 80 1010.5
20260505063826 57 225 0.0 0.0 0.00 0.00 0.00 79 1010.7
20260505063321 57 225 0.0 0.0 0.00 0.00 0.00 79 1010.6
20260505062818 58 225 0.0 0.0 0.00 0.00 0.00 78 1010.5
20260505062316 59 225 0.0 0.0 0.00 0.00 0.00 76 1010.6
20260505061812 59 225 0.0 0.0 0.00 0.00 0.00 73 1010.6
20260505061310 60 225 0.0 0.0 0.00 0.00 0.00 72 1010.8
20260505060808 60 225 0.0 1.0 0.00 0.00 0.00 72 1010.6
20260505060304 60 225 0.0 0.0 0.00 0.00 0.00 72 1010.6
20260505055800 59 225 0.0 0.0 0.00 0.00 0.00 73 1010.6
20260505055256 59 225 0.0 1.0 0.00 0.00 0.00 74 1010.8